Location: Cicognara
(44.9500°N, 10.4667°E)
Time: 13:10:58
(UTC+00:00)

FALCON 9 DEB - Pass Details

Date: 20 June 2021
Orbit: 362 x 379 km, 53.0° (Epoch: 02 August)

Event Time Altitude Azimuth Distance (km) Brightness Sun altitude
Rises 20:22:15 0° 229° (SW) 2,250 6.8 -10.5°
Reaches altitude 10° 20:24:18 10° 226° (SW) 1,403 5.7 -10.8°
Maximum altitude 20:27:25 65° 144° (SE) 427 2.8 -11.1°
Drops below altitude 10° 20:30:33 10° 61° (ENE) 1,417 5.6 -11.5°
Sets 20:32:38 0° 59° (ENE) 2,275 6.7 -11.7°
